Eaton, Ohio, United States (45320)
Lat: 39.74N, Lon: 84.64W
Wx Zone: OHZ060
Local Info
Past Weather Observations for Today

NOTE: This archive is for the closest National Weather Service station to Eaton. Information may differ from the station used for current weather conditions.

Click here for Long-term Archive

Time Weather Temperature Dewpoint Humidity Pressure Winds Precip Visibility
15:53
Mostly Cloudy
82°F / 28°C 73°F / 23°C 74% 29.92 in
(1013 mb)
SW 8.1 mph
(SW 13 kph)
0.07 in
(1.78 mm)
10SM
15:44
Mostly Cloudy
82°F / 28°C 73°F / 23°C 74% 29.92 in
(1013 mb)
SW 8.1 mph
(SW 13 kph)
0.07 in
(1.78 mm)
10SM
15:36
Mostly Cloudy
Light Rain
81°F / 27°C 72°F / 22°C 74% 29.92 in
(1013 mb)
SW 10.4 mph
(SW 17 kph)
0.07 in
(1.78 mm)
2SM
14:53
Partly Cloudy
82°F / 28°C 72°F / 22°C 70% 29.92 in
(1013 mb)
SW 10.4 mph
(SW 17 kph)
- 10SM
13:53
Partly Cloudy
81°F / 27°C 72°F / 22°C 74% 29.95 in
(1014 mb)
SSE 13.8 mph
(SSE 22 kph)
- 10SM
13:29
Mostly Cloudy
82°F / 28°C 72°F / 22°C 70% 29.95 in
(1014 mb)
SW 13.8 mph
(SW 22 kph)
- 10SM
12:53
Partly Cloudy
82°F / 28°C 72°F / 22°C 70% 29.95 in
(1014 mb)
SW 15 mph
(SW 24 kph)
- 10SM
11:53
Mostly Cloudy
81°F / 27°C 73°F / 23°C 79% 29.95 in
(1014 mb)
SSE 10.4 mph
(SSE 17 kph)
- 10SM
10:53
Mostly Cloudy
79°F / 26°C 73°F / 23°C 84% 29.98 in
(1015 mb)
S 9.2 mph
(S 15 kph)
0.04 in
(1.02 mm)
10SM
10:27
Mostly Cloudy
77°F / 25°C 73°F / 23°C 89% 29.98 in
(1015 mb)
SW 8.1 mph
(SW 13 kph)
0.04 in
(1.02 mm)
9SM
10:06
Overcast
Light Rain
75°F / 24°C 72°F / 22°C 89% 30.01 in
(1016 mb)
SW 9.2 mph
(SW 15 kph)
0.04 in
(1.02 mm)
5SM
10:02
Overcast
Light Rain
75°F / 24°C 72°F / 22°C 89% 30.01 in
(1016 mb)
SSE 11.5 mph
(SSE 19 kph)
0.04 in
(1.02 mm)
2SM
09:53
Overcast
75°F / 24°C 72°F / 22°C 89% 30.01 in
(1016 mb)
SSE 10.4 mph
(SSE 17 kph)
- 8SM
09:43
Overcast
75°F / 24°C 72°F / 22°C 89% 30.01 in
(1016 mb)
SW 10.4 mph
(SW 17 kph)
- 8SM
09:21
Overcast
75°F / 24°C 73°F / 23°C 94% 30.01 in
(1016 mb)
SW 6.9 mph
(SW 11 kph)
- 7SM
08:53
Overcast
Fog And Mist
75°F / 24°C 73°F / 23°C 94% 30.01 in
(1016 mb)
S 9.2 mph
(S 15 kph)
0.01 in
(0.25 mm)
6SM
08:32
Overcast
Fog And Mist
73°F / 23°C 72°F / 22°C 94% 30.01 in
(1016 mb)
SSE 8.1 mph
(SSE 13 kph)
0.01 in
(0.25 mm)
6SM
07:53
Overcast
73°F / 23°C 72°F / 22°C 94% 30.01 in
(1016 mb)
S 8.1 mph
(S 13 kph)
- 7SM
07:43
Overcast
Fog And Mist
73°F / 23°C 72°F / 22°C 94% 30.01 in
(1016 mb)
S 6.9 mph
(S 11 kph)
- 6SM
07:36
Mostly Cloudy
Fog And Mist
73°F / 23°C 72°F / 22°C 94% 30.01 in
(1016 mb)
S 9.2 mph
(S 15 kph)
- 6SM
06:59
Overcast
Fog And Mist
73°F / 23°C 72°F / 22°C 94% 30.01 in
(1016 mb)
SSE 4.6 mph
(SSE 7 kph)
- 6SM
06:53
Overcast
Fog And Mist
73°F / 23°C 72°F / 22°C 94% 30.01 in
(1016 mb)
S 5.8 mph
(S 9 kph)
- 6SM
06:36
Overcast
Fog And Mist
72°F / 22°C 72°F / 22°C 100% 30.01 in
(1016 mb)
S 5.8 mph
(S 9 kph)
- 6SM
06:12
Overcast
72°F / 22°C 72°F / 22°C 100% 30.01 in
(1016 mb)
S 5.8 mph
(S 9 kph)
- 7SM
06:01
Overcast
72°F / 22°C 70°F / 21°C 94% 30.01 in
(1016 mb)
S 5.8 mph
(S 9 kph)
- 8SM
05:53
Overcast
72°F / 22°C 70°F / 21°C 94% 30.01 in
(1016 mb)
S 4.6 mph
(S 7 kph)
- 8SM
05:01
Overcast
72°F / 22°C 72°F / 22°C 100% 30.01 in
(1016 mb)
SW 4.6 mph
(SW 7 kph)
- 10SM
04:53
Overcast
72°F / 22°C 70°F / 21°C 94% 30.01 in
(1016 mb)
SW 5.8 mph
(SW 9 kph)
- 10SM
04:27
Overcast
72°F / 22°C 70°F / 21°C 94% 30.01 in
(1016 mb)
SW 6.9 mph
(SW 11 kph)
- 10SM
04:17
Overcast
72°F / 22°C 70°F / 21°C 94% 30.01 in
(1016 mb)
SW 6.9 mph
(SW 11 kph)
- 10SM
03:53
Overcast
72°F / 22°C 70°F / 21°C 94% 30.01 in
(1016 mb)
SSE 5.8 mph
(SSE 9 kph)
- 10SM
03:33
Overcast
72°F / 22°C 70°F / 21°C 94% 30.01 in
(1016 mb)
SW 4.6 mph
(SW 7 kph)
- 10SM
03:08
Overcast
72°F / 22°C 70°F / 21°C 94% 30.01 in
(1016 mb)
S 5.8 mph
(S 9 kph)
- 10SM
03:00
Overcast
72°F / 22°C 70°F / 21°C 94% 30.01 in
(1016 mb)
S 6.9 mph
(S 11 kph)
- 10SM
02:53
Overcast
72°F / 22°C 70°F / 21°C 94% 30.01 in
(1016 mb)
S 6.9 mph
(S 11 kph)
- 10SM
02:51
Overcast
72°F / 22°C 70°F / 21°C 94% 30.01 in
(1016 mb)
S 6.9 mph
(S 11 kph)
- 10SM
02:12
Overcast
70°F / 21°C 70°F / 21°C 100% 30.01 in
(1016 mb)
S 4.6 mph
(S 7 kph)
- 10SM
01:53
Mostly Cloudy
70°F / 21°C 70°F / 21°C 100% 30.01 in
(1016 mb)
S 4.6 mph
(S 7 kph)
- 10SM
01:21
Mostly Cloudy
70°F / 21°C 70°F / 21°C 100% 30.01 in
(1016 mb)
S 5.8 mph
(S 9 kph)
- 10SM
00:53
Clear
70°F / 21°C 68°F / 20°C 94% 30.01 in
(1016 mb)
SSE 5.8 mph
(SSE 9 kph)
- 10SM
Time Weather Temperature Dewpoint Humidity Pressure Winds Precip Visibility


Weather for websites

WeatherForYou.com, LLC is not responsible for any damages or problems caused by this service. Current weather conditions are obtained from the closest station including government and personal stations which may have varying degrees of accuracy. Weather forecasts are derived from the NOAA NDFD. Like all things, this site belongs to Jesus Christ... He just trusts me to maintain it. If you have any questions or comments email webmaster@weatherforyou.com

Copyright © 2014, WeatherForYou.com LLC. All rights reserved.